Theta_e
303 303 304 303 303 303 303 304 301 302 302 306 309 315 316 318 319 320 321 322 323 325 327 330 332 332 331 331 329 335 338 337 338 339 339 338 337 337 337 337 335 335 333 330
303 304 304 302 303 304 303 302 303 303 303 309 317 318 317 318 318 319 321 322 323 325 326 326 327 327 327 327 326 326 326 329 334 338 337 336 334 334 334 334 334 333 331 331
300 302 302 298 303 303 304 305 305 301 305 313 314 315 317 318 319 318 320 321 323 323 324 326 325 326 325 323 325 328 330 332 333 334 331 330 329 328 329 330 332 330 330 329
300 301 293 302 307 307 306 307 308 307 310 315 317 319 320 321 320 320 321 321 322 323 324 324 325 324 324 324 323 323 323 325 326 325 322 321 321 319 322 323 321 323 325 325
299 297 300 302 306 306 305 304 311 310 315 317 318 318 318 321 321 322 322 322 323 324 325 324 322 322 322 321 322 321 320 321 321 321 319 320 320 321 317 320 321 321 322 321
300 296 293 304 306 309 309 300 312 314 316 317 316 308 313 321 322 322 323 324 323 323 323 322 322 322 322 321 321 319 319 319 320 320 320 320 321 321 322 322 321 320 320 321
297 298 300 305 307 308 298 301 310 315 317 318 314 317 317 321 321 323 324 322 323 322 322 322 322 323 322 321 319 320 321 321 321 322 322 322 321 321 320 318 318 318 318 320
297 296 293 308 308 303 308 312 312 314 318 319 321 319 318 320 321 322 322 322 321 322 322 322 321 321 319 317 320 321 321 320 319 320 318 317 318 317 316 316 314 314 315 314
302 302 307 308 309 313 312 312 313 314 315 315 316 315 318 320 321 322 319 318 319 320 319 320 318 318 315 316 318 318 317 317 317 318 318 318 315 315 312 314 311 311 310 310
303 305 307 308 309 311 312 312 313 314 315 314 314 313 314 317 314 314 313 315 317 317 316 316 315 313 316 317 317 316 316 316 317 317 316 317 314 312 312 310 309 309 309 309
303 306 307 309 310 311 310 311 311 311 312 313 313 313 311 312 312 313 312 313 315 316 315 315 315 314 315 315 316 315 315 315 316 313 315 313 314 313 311 313 309 309 309 310
300 310 310 309 313 312 310 311 311 310 308 309 310 310 310 311 312 312 312 312 312 313 313 313 313 313 313 314 314 314 313 312 311 311 310 311 311 311 303 298 297 295 295 298
306 307 311 311 312 311 310 310 309 310 309 308 308 308 307 308 308 307 307 308 309 310 311 312 312 311 312 313 313 312 312 313 312 308 311 310 310 309 308 308 300 296 293 292
308 307 306 308 307 311 310 310 309 309 307 307 307 306 307 307 307 307 307 309 309 308 309 310 310 310 312 312 312 312 313 303 310 311 311 310 309 309 309 308 307 309 301 296
306 308 307 306 308 307 307 306 305 304 304 304 306 306 306 306 307 308 309 309 310 309 309 310 309 310 312 312 312 312 311 311 311 310 310 308 310 310 310 309 309 309 310 304
306 307 307 305 306 305 303 302 302 302 303 304 305 306 306 307 307 308 308 308 307 308 308 308 309 311 312 312 311 311 311 303 301 308 308 308 308 309 309 309 308 308 306 307
303 302 303 303 302 301 301 302 302 302 304 305 306 308 308 308 308 308 308 309 309 310 311 310 310 310 311 311 311 309 308 308 299 307 307 307 307 307 307 305 303 304 304 303
302 302 302 303 301 302 303 304 304 305 305 305 306 306 306 306 305 306 307 308 308 309 310 311 310 310 310 309 308 308 307 306 306 306 307 306 305 306 307 305 303 301 301 302
305 304 304 304 304 304 304 304 304 305 305 305 304 304 305 305 305 306 307 306 305 304 307 310 302 305 307 306 303 307 306 306 307 308 306 302 306 304 302 302 301 301 301 301
303 304 304 303 304 303 303 304 304 304 304 304 304 303 303 304 305 305 305 302 302 304 309 308 308 308 308 307 299 305 304 307 308 306 303 307 305 302 301 297 301 301 301 302
302 302 301 302 302 302 303 303 303 302 304 304 302 301 300 301 303 304 301 300 303 305 306 302 307 308 309 302 303 306 308 310 309 304 304 306 305 303 303 303 303 303 302 304
301 301 301 301 302 302 303 304 304 303 302 301 301 301 300 300 301 302 303 302 305 295 304 308 310 296 302 291 305 308 310 310 303 305 307 307 306 305 306 306 306 306 306 306
301 301 301 302 302 303 303 302 302 302 300 300 301 302 300 301 301 300 298 303 304 298 306 309 291 287 287 305 308 311 311 306 305 307 309 309 308 308 307 307 306 304 302 302
302 302 303 303 302 301 299 301 301 301 302 303 303 302 302 301 301 303 303 298 294 299 305 302 296 287 287 309 308 308 305 305 308 310 308 295 302 304 303 302 301 301 301 300
303 303 301 300 300 300 300 301 301 301 303 303 304 303 303 304 301 303 305 304 293 302 306 289 289 292 308 309 305 304 305 300 300 302 302 301 301 300 300 299 298 299 299 299
301 300 301 301 302 301 301 301 301 302 301 301 302 304 304 306 306 306 306 303 307 301 306 306 307 305 301 300 298 299 301 300 300 299 298 298 298 298 297 297 297 296 296 296
300 297 302 303 302 301 302 301 301 301 302 301 300 304 304 305 304 305 300 307 307 305 306 302 299 296 297 299 300 299 298 296 292 296 295 294 294 293 292 292 292 293 293 293
Wind_Speed
3 3 4 9 12 9 4 10 4 7 5 4 5 6 7 8 9 10 11 10 8 7 6 5 8 9 10 6 4 2 7 6 5 4 2 3 4 4 5 6 6 6 7 7
3 4 7 6 6 6 5 7 5 5 5 1 1 1 4 7 7 9 9 10 9 10 10 9 7 6 6 6 4 4 4 2 3 1 1 1 2 3 4 5 5 4 5 6
6 2 5 3 7 6 4 4 6 4 2 3 3 4 3 4 5 6 6 7 8 8 7 5 5 5 6 5 3 6 7 8 8 6 5 6 5 5 6 6 6 6 6 5
4 3 4 4 2 4 4 5 6 2 3 4 5 5 3 2 4 6 7 7 6 5 4 4 4 5 5 8 9 8 8 7 6 5 5 5 6 6 6 5 2 4 7 5
3 3 2 1 4 5 5 3 6 4 7 7 6 4 4 3 3 5 5 5 5 3 2 4 4 4 5 5 5 6 6 6 6 5 4 5 6 7 4 2 6 4 7 9
1 3 4 1 3 1 3 5 7 8 10 10 7 5 4 5 5 6 5 5 4 3 2 1 1 0 1 3 4 5 5 5 5 5 6 7 7 7 6 8 10 10 9 9
2 2 3 1 5 2 7 3 2 7 7 10 6 2 3 4 4 4 3 3 4 2 2 3 2 1 0 2 4 3 2 3 4 5 5 6 7 6 7 8 8 9 10 10
3 2 5 4 2 5 3 3 1 4 4 7 5 3 2 3 4 4 3 3 2 3 3 3 1 2 2 3 2 1 3 4 5 5 4 4 4 5 6 6 8 10 10 10
3 1 1 2 3 4 3 2 2 2 3 2 2 2 1 3 3 2 2 1 1 2 3 1 1 1 3 1 2 3 4 5 5 5 5 4 5 7 7 8 8 10 9 9
2 3 2 2 2 3 2 1 2 1 2 3 2 2 3 5 4 4 4 4 3 4 4 5 3 4 4 5 4 5 5 5 5 6 6 6 6 6 7 8 9 10 10 10
3 4 4 8 8 5 4 3 4 3 2 1 3 4 4 5 5 5 5 4 4 5 5 7 5 6 7 7 5 7 7 8 8 7 7 7 8 8 8 9 9 9 10 9
4 5 5 4 7 10 8 7 4 3 2 2 3 3 3 5 5 4 5 4 5 7 7 9 8 9 9 6 6 8 8 9 8 8 8 8 8 10 8 13 14 12 15 10
4 2 7 3 4 8 8 7 5 6 5 2 1 3 3 5 4 4 6 8 9 10 9 9 9 9 9 7 6 8 9 10 8 7 8 9 11 11 12 10 11 13 11 8
6 3 5 7 5 8 8 6 7 3 3 1 2 2 4 5 6 7 9 9 8 9 9 9 8 10 8 7 7 7 8 6 7 7 9 10 11 12 12 12 13 12 4 6
9 11 4 1 6 5 4 5 5 5 4 2 1 2 3 5 6 6 6 7 5 6 8 7 7 8 5 4 5 6 7 7 8 9 10 9 10 10 10 11 9 8 7 5
8 5 8 8 5 6 6 5 5 4 3 3 4 4 4 5 6 7 7 5 5 6 7 6 5 5 5 6 8 8 7 5 6 8 9 10 10 10 9 9 9 9 8 8
5 4 7 9 6 6 3 3 3 3 2 3 4 5 5 6 6 6 7 6 6 6 6 5 5 6 7 7 8 6 6 7 6 8 9 8 8 8 8 8 7 6 7 4
3 4 5 4 6 6 6 5 4 3 4 5 7 8 9 9 10 10 10 8 7 6 7 5 5 5 6 7 6 5 6 7 8 7 6 6 7 7 9 9 7 5 4 4
12 12 12 11 8 6 4 4 4 6 7 7 9 10 10 10 11 10 9 8 8 9 9 6 1 5 5 5 5 6 6 7 6 4 4 5 8 9 7 6 6 5 5 6
10 9 8 7 6 5 5 6 7 8 8 9 9 9 10 10 9 9 7 8 6 6 7 4 5 5 5 5 4 5 5 5 3 5 3 7 10 8 7 9 9 9 9 9
6 6 6 6 5 5 5 6 6 8 9 9 8 9 9 7 7 7 7 6 6 5 3 1 4 4 3 3 4 5 4 2 6 4 4 6 7 8 10 9 7 7 7 5
6 6 6 6 7 7 6 7 7 7 7 8 8 8 7 6 6 6 6 7 2 3 1 1 2 4 5 6 4 4 2 7 5 4 4 3 4 4 5 5 6 4 2 5
5 6 6 6 7 8 9 7 5 7 7 7 8 7 5 4 3 4 4 2 3 3 2 2 4 3 5 4 3 0 7 8 3 4 3 2 3 4 5 6 6 7 7 6
5 6 6 7 6 5 6 6 7 6 7 7 6 5 2 1 1 1 2 3 5 2 4 4 3 4 4 3 5 7 7 5 2 4 5 7 5 6 6 6 7 7 7 8
5 6 5 5 5 4 5 6 6 5 6 6 5 2 3 1 2 2 3 4 5 4 5 4 4 3 7 9 8 7 8 6 5 6 7 7 6 6 7 7 8 8 8 8
5 4 4 4 3 3 4 3 3 3 3 4 5 5 5 4 4 5 6 6 7 6 7 6 7 9 9 8 8 8 7 8 9 9 8 8 8 8 8 8 8 8 8 8
3 3 1 1 1 2 3 3 3 3 4 4 6 6 5 5 6 6 7 8 8 8 8 8 8 9 9 9 10 11 10 10 10 9 9 8 8 8 8 8 8 7 7 8
Wind_Direction
44 132 147 146 151 161 141 144 182 151 214 306 333 330 342 342 6 22 31 44 47 50 57 65 88 94 88 82 71 99 257 269 259 251 285 308 288 276 273 264 262 261 259 251
86 68 139 142 153 148 128 157 134 163 243 94 118 157 34 24 25 39 45 54 67 81 90 85 82 90 114 128 141 211 233 25 356 341 58 51 24 347 303 288 282 262 259 262
142 70 127 160 203 189 144 163 154 191 95 178 164 129 80 58 58 65 79 93 99 100 96 79 48 15 26 29 61 56 41 38 30 23 37 27 25 30 16 6 349 333 325 311
111 132 204 70 281 229 173 169 191 151 177 156 138 119 113 128 132 128 131 133 126 109 93 43 26 29 21 28 34 34 36 36 37 47 73 77 73 57 46 2 13 338 318 309
152 186 348 152 181 160 192 186 198 174 147 146 145 157 161 162 169 144 146 135 128 115 27 9 16 26 35 42 32 29 30 32 33 41 40 9 351 340 321 333 306 308 306 305
0 197 196 47 34 117 150 263 189 185 175 170 167 221 96 170 165 160 161 161 163 142 107 110 47 308 55 57 35 26 21 24 14 357 336 327 324 314 307 299 297 299 302 297
130 195 284 4 325 305 213 308 321 205 176 166 188 42 111 187 182 177 169 158 133 138 165 159 172 205 66 20 24 31 7 322 296 293 301 309 318 330 330 321 314 306 307 307
113 166 261 24 249 225 1 324 299 159 169 197 225 277 302 197 195 186 178 155 143 176 183 175 59 335 14 39 45 249 289 291 303 306 309 317 303 313 316 317 313 309 307 305
226 355 16 278 272 312 242 295 106 137 159 181 211 242 214 235 236 238 261 287 262 294 315 25 27 334 299 298 287 317 309 312 303 296 298 305 313 316 314 315 309 308 309 310
197 178 244 273 263 255 237 209 145 116 138 176 244 241 252 249 260 270 269 268 263 267 276 288 241 249 266 291 285 281 292 287 286 289 298 288 296 299 294 303 308 307 308 305
230 244 261 242 230 216 183 162 146 113 77 18 243 265 276 270 256 256 260 260 252 252 258 268 266 270 266 265 268 270 269 275 272 268 278 291 288 291 293 297 294 305 304 310
243 205 239 238 215 193 192 194 183 160 141 188 214 258 255 261 266 270 269 268 259 254 256 264 268 271 282 291 266 265 279 280 279 292 291 294 293 295 261 245 266 254 251 254
293 326 238 317 230 194 210 209 195 200 208 224 136 263 272 280 289 285 275 270 265 273 281 279 282 284 285 279 256 264 268 276 284 288 295 297 300 303 304 297 257 246 251 240
246 240 252 217 215 201 219 211 182 157 122 173 302 273 261 265 280 269 272 281 283 275 274 272 272 271 280 265 276 282 291 278 287 301 302 304 309 303 301 298 308 315 281 246
261 226 258 283 197 195 185 172 159 145 142 153 173 255 251 267 270 289 309 315 289 278 280 279 274 286 331 329 321 314 306 310 317 310 309 311 299 306 304 307 302 305 316 306
320 251 220 237 245 185 177 168 174 185 214 275 288 301 316 308 301 305 316 333 321 317 324 312 306 352 354 336 322 308 310 316 310 317 309 316 321 316 317 314 311 312 317 317
259 247 216 221 189 164 166 100 54 38 7 317 316 319 309 309 307 309 328 335 317 307 311 313 329 334 329 323 319 325 316 312 315 298 311 327 321 324 317 318 308 304 316 2
65 69 69 118 132 122 98 73 55 14 330 323 313 304 298 297 299 301 303 314 307 299 283 285 304 319 319 325 329 311 303 311 308 305 329 340 336 328 331 332 321 313 320 347
71 72 69 69 66 67 51 11 334 313 306 306 301 296 297 290 286 286 289 287 294 286 282 302 56 299 331 354 333 305 317 318 323 5 13 333 19 7 355 357 3 10 25 58
60 55 51 46 38 16 342 320 307 297 295 296 297 291 287 287 291 287 285 273 257 272 301 307 326 320 318 336 328 318 291 323 350 73 41 61 60 44 40 38 39 43 53 62
35 21 14 4 350 337 329 323 311 304 310 309 301 291 284 278 288 294 280 273 280 265 267 13 332 313 330 319 309 290 324 1 87 93 93 85 81 74 82 84 74 80 102 100
7 1 353 342 327 322 332 323 318 318 314 301 286 279 274 258 266 273 255 251 332 92 43 310 294 29 329 322 294 314 29 107 112 148 115 86 70 52 48 40 49 62 45 2
350 344 332 330 330 330 332 334 323 320 313 304 298 300 289 278 275 280 290 94 119 143 190 37 55 315 299 264 271 141 98 112 154 140 104 29 13 6 8 21 19 29 33 41
325 326 324 337 330 326 331 331 333 327 328 321 332 328 334 3 332 195 175 155 139 112 53 47 2 344 319 61 74 79 101 116 115 49 51 25 16 37 43 46 48 43 44 43
336 330 327 339 346 340 336 329 331 341 351 344 12 47 48 36 56 69 104 88 86 126 85 49 22 30 74 74 70 70 73 58 58 72 60 55 50 46 48 50 43 38 45 42
332 319 338 334 319 322 314 329 340 13 349 23 31 36 42 43 78 90 89 94 93 88 69 66 67 71 68 73 76 81 86 74 64 55 53 49 47 44 43 42 42 41 40 42
322 311 335 321 318 324 346 358 1 23 50 58 64 60 63 74 79 87 87 86 80 83 84 72 67 67 78 80 78 74 72 66 45 53 51 49 45 42 38 36 34 32 36 36